Home > Weather > Völklingen > Past weeks

Flag for Germany Weather for the Past 2 Weeks in Völklingen, Saarland, Germany

Now
54 °F

Clear.


Feels Like: 54 °F
Forecast: 42 / 56 °F
Wind: 2 mph from North

Location: Saarbruecken / Ensheim

Current Time: May 2, 2016 at 11:33:27 PM

Latest Report: May 2, 2016 at 10:50 PM


Visibility: 10 mi

Pressure: 30.12 "Hg

Humidity: 58%

Dew Point: 39 °F

Location of VölklingenLocation

Historic Weather in Völklingen — Graph

°F

Völklingen Temperature Yesterday

Maximum temperature yesterday: 59 °F (at 4:50 PM)
Minimum temperature yesterday: 39 °F (at 3:20 AM)
Average temperature yesterday: 49 °F

High & Low Weather Summary for the Past Weeks

 TemperatureHumidityPressure
High70 °F (Apr 21, 4:50 PM)100% (Apr 25, 1:20 AM)30.39 "Hg (Apr 25, 1:20 AM)
Low28 °F (Apr 24, 6:20 AM)20% (Apr 21, 5:50 PM)29.56 "Hg (Apr 26, 3:20 AM)
Average45 °F68%30.03 "Hg
* Reported Apr 17 10:20 PM — May 2 10:20 PM, Völklingen, Weather by CustomWeather, © 2016

Note: Actual official high and low records may vary slightly from our data, if they occured in-between our weather recording intervals... More about our weather records

Advertising

Völklingen Weather History for the Previous 24 Hours

Scroll right to see more
 ConditionsComfort  
Time TempWeatherWind HumidityBarometerVisibility
10:20 PM
Mon, May 2
54 °FClear.1 mph54%30.12 "Hg10 mi
9:50 PM55 °FClear.1 mph55%30.12 "Hg10 mi
9:20 PM55 °FSunny.2 mph51%30.12 "Hg10 mi
8:50 PM57 °FSunny.2 mph48%30.09 "Hg10 mi
8:20 PM59 °FSunny.2 mph45%30.09 "Hg10 mi
7:50 PM63 °FSunny.2 mph39%30.09 "Hg10 mi
7:20 PM64 °FPassing clouds.3 mph32%30.09 "HgN/A
6:50 PM64 °FPassing clouds.3 mph32%30.09 "HgN/A
6:20 PM66 °FSunny.3 mph32%30.12 "Hg10 mi
5:50 PM66 °FSunny.3 mph32%30.12 "Hg10 mi
5:20 PM66 °FPassing clouds.5 mph35%30.12 "HgN/A
4:50 PM66 °FSunny.6 mph35%30.12 "Hg10 mi
4:20 PM66 °FSunny.2 mph35%30.15 "Hg10 mi
3:50 PM66 °FSunny.3 mph37%30.15 "Hg10 mi
3:20 PM64 °FPassing clouds.5 mph40%30.15 "HgN/A
2:50 PM63 °FSunny.5 mph42%30.18 "Hg10 mi
2:20 PM63 °FSunny.6 mph42%30.18 "Hg10 mi
1:50 PM61 °FSunny.6 mph45%30.18 "Hg10 mi
1:20 PM61 °FPassing clouds.6 mph42%30.18 "HgN/A
12:50 PM59 °FPassing clouds.8 mph48%30.21 "HgN/A
12:20 PM59 °FPassing clouds.10 mph51%30.21 "HgN/A
11:50 AM59 °FPassing clouds.10 mph51%30.21 "HgN/A
11:20 AM57 °FPassing clouds.7 mph51%30.21 "HgN/A
10:50 AM57 °FPassing clouds.9 mph51%30.21 "HgN/A
10:20 AM55 °FPassing clouds.10 mph55%30.24 "HgN/A
9:50 AM55 °FPassing clouds.9 mph55%30.24 "HgN/A
9:20 AM54 °FPassing clouds.9 mph63%30.24 "HgN/A
8:50 AM50 °FPassing clouds.8 mph71%30.24 "HgN/A
8:20 AM50 °FSunny.9 mph71%30.24 "Hg10 mi
7:20 AM46 °FSunny.10 mph82%30.24 "Hg10 mi
6:50 AM45 °FClear.8 mph81%30.24 "Hg10 mi
6:20 AM45 °FClear.9 mph81%30.24 "Hg10 mi
5:50 AM45 °FPassing clouds.8 mph81%30.24 "HgN/A
5:20 AM45 °FClear.10 mph81%30.24 "Hg10 mi
4:50 AM45 °FClear.8 mph81%30.24 "Hg10 mi
4:20 AM45 °FClear.8 mph81%30.24 "Hg10 mi
3:50 AM45 °FPassing clouds.6 mph76%30.24 "HgN/A
3:20 AM46 °FClear.8 mph76%30.24 "Hg10 mi
2:50 AM48 °FClear.8 mph71%30.24 "Hg10 mi
2:20 AM46 °FClear.7 mph76%30.24 "Hg10 mi
1:50 AM48 °FClear.8 mph71%30.24 "Hg10 mi
1:20 AM48 °FPassing clouds.9 mph71%30.24 "HgN/A
12:50 AM50 °FPassing clouds.10 mph71%30.24 "HgN/A
12:20 AM52 °FClear.12 mph67%30.24 "Hg10 mi
11:50 PM
Sun, May 1
52 °FClear.13 mph67%30.24 "Hg10 mi
Weather by CustomWeather, © 2016

See weather overviewHow to use our weather pages